RYR537R EGBB-LFOB

Flight info

Callsign RYR537R
Flight time 0h 56m
Altitude 29000
Route COWLY L612 MID Y803 SFD UM605 XIDIL M605 PETAX J150 VELOL
Aircraft B738/M-SDE2E3FGHIRWXY/LB1

Departure

Time 2026-05-08 06:28
Airport Birmingham Airport (EGBB)

Arrival

Time 2026-05-08 07:24
Airport Beauvais-Tillé airport (LFOB)
Time Latitude Longitude Altitude Speed Heading
2026-05-08 06:03 52.45414 -1.73928 328 ft 0 kts 326°
2026-05-08 06:19 52.45405 -1.73916 330 ft 4 kts 326°
2026-05-08 06:19 52.45384 -1.73895 327 ft 2 kts 326°
2026-05-08 06:19 52.45368 -1.73872 329 ft 4 kts 287°
2026-05-08 06:20 52.45371 -1.73838 326 ft 4 kts 236°
2026-05-08 06:20 52.45382 -1.73812 331 ft 0 kts 236°
2026-05-08 06:22 52.45381 -1.73815 329 ft 2 kts 236°
2026-05-08 06:22 52.45357 -1.73871 331 ft 11 kts 235°
2026-05-08 06:23 52.45313 -1.73996 331 ft 13 kts 259°
2026-05-08 06:23 52.45340 -1.74137 327 ft 14 kts 296°
2026-05-08 06:23 52.45389 -1.74297 329 ft 18 kts 297°
2026-05-08 06:23 52.45450 -1.74495 330 ft 21 kts 297°
2026-05-08 06:24 52.45540 -1.74650 326 ft 20 kts 326°
2026-05-08 06:24 52.45663 -1.74787 326 ft 22 kts 326°
2026-05-08 06:24 52.45789 -1.74927 324 ft 22 kts 326°
2026-05-08 06:24 52.45912 -1.75064 322 ft 21 kts 326°
2026-05-08 06:25 52.46034 -1.75199 319 ft 21 kts 326°
2026-05-08 06:25 52.46157 -1.75335 313 ft 22 kts 326°
2026-05-08 06:25 52.46286 -1.75479 310 ft 22 kts 326°
2026-05-08 06:25 52.46411 -1.75617 313 ft 21 kts 326°
2026-05-08 06:26 52.46528 -1.75749 318 ft 20 kts 325°
2026-05-08 06:26 52.46623 -1.75867 322 ft 13 kts 301°
2026-05-08 06:26 52.46600 -1.75995 327 ft 12 kts 236°
2026-05-08 06:26 52.46539 -1.76076 326 ft 12 kts 178°
2026-05-08 06:27 52.46451 -1.75991 325 ft 20 kts 146°
2026-05-08 06:27 52.46147 -1.75652 315 ft 90 kts 146°
2026-05-08 06:27 52.45453 -1.74879 324 ft 150 kts 146°
2026-05-08 06:27 52.44489 -1.73805 668 ft 174 kts 146°
2026-05-08 06:28 52.43450 -1.72681 1359 ft 184 kts 146°
2026-05-08 06:28 52.42365 -1.71460 2012 ft 194 kts 144°
2026-05-08 06:28 52.41214 -1.70171 2581 ft 205 kts 150°
2026-05-08 06:28 52.39840 -1.69439 3199 ft 210 kts 167°
2026-05-08 06:29 52.38396 -1.68923 3829 ft 215 kts 168°
2026-05-08 06:29 52.36991 -1.68144 4597 ft 215 kts 152°
2026-05-08 06:29 52.35662 -1.66952 5243 ft 219 kts 153°
2026-05-08 06:29 52.34319 -1.65688 5791 ft 229 kts 149°
2026-05-08 06:30 52.32895 -1.64196 5954 ft 257 kts 148°
2026-05-08 06:30 52.31372 -1.62573 5890 ft 263 kts 147°
2026-05-08 06:30 52.29837 -1.60947 5954 ft 260 kts 148°
2026-05-08 06:30 52.28298 -1.59366 5981 ft 264 kts 148°
2026-05-08 06:31 52.26728 -1.57749 6559 ft 268 kts 148°
2026-05-08 06:31 52.25140 -1.56168 7502 ft 267 kts 152°
2026-05-08 06:31 52.23468 -1.54808 8346 ft 271 kts 155°
2026-05-08 06:31 52.21751 -1.53480 9098 ft 276 kts 155°
2026-05-08 06:32 52.20008 -1.52124 9902 ft 279 kts 155°
2026-05-08 06:32 52.18245 -1.50748 10661 ft 283 kts 155°
2026-05-08 06:32 52.16457 -1.49340 11421 ft 288 kts 156°
2026-05-08 06:32 52.14637 -1.47904 12118 ft 294 kts 157°
2026-05-08 06:33 52.12802 -1.46457 12854 ft 299 kts 157°
2026-05-08 06:33 52.10902 -1.44958 13697 ft 300 kts 157°
2026-05-08 06:33 52.09043 -1.43493 14528 ft 302 kts 157°
2026-05-08 06:33 52.07146 -1.41998 15351 ft 304 kts 157°
2026-05-08 06:34 52.05234 -1.40491 16158 ft 307 kts 157°
2026-05-08 06:34 52.03305 -1.38973 16945 ft 309 kts 156°
2026-05-08 06:34 52.01362 -1.37446 17725 ft 312 kts 156°
2026-05-08 06:34 51.99403 -1.35907 18478 ft 314 kts 156°
2026-05-08 06:35 51.97426 -1.34356 19197 ft 317 kts 156°
2026-05-08 06:35 51.95424 -1.32787 19840 ft 323 kts 156°
2026-05-08 06:35 51.93389 -1.31193 20494 ft 327 kts 156°
2026-05-08 06:35 51.91328 -1.29582 21137 ft 331 kts 156°
2026-05-08 06:36 51.89247 -1.27956 21776 ft 335 kts 156°
2026-05-08 06:36 51.87138 -1.26308 22403 ft 338 kts 156°
2026-05-08 06:36 51.85006 -1.24645 22987 ft 342 kts 156°
2026-05-08 06:36 51.82847 -1.22963 23561 ft 346 kts 156°
2026-05-08 06:37 51.80663 -1.21264 24115 ft 350 kts 156°
2026-05-08 06:37 51.78458 -1.19550 24670 ft 353 kts 156°
2026-05-08 06:37 51.76232 -1.17822 25240 ft 356 kts 156°
2026-05-08 06:37 51.73994 -1.16085 25801 ft 358 kts 156°
2026-05-08 06:38 51.71738 -1.14336 26338 ft 361 kts 156°
2026-05-08 06:38 51.69467 -1.12578 26838 ft 364 kts 156°
2026-05-08 06:38 51.67171 -1.10801 27327 ft 367 kts 156°
2026-05-08 06:38 51.64861 -1.09017 27803 ft 370 kts 156°
2026-05-08 06:39 51.62534 -1.07224 28290 ft 372 kts 157°
2026-05-08 06:39 51.60243 -1.05236 28716 ft 378 kts 149°
2026-05-08 06:39 51.58072 -1.02801 29032 ft 385 kts 146°
2026-05-08 06:39 51.55896 -1.00184 29039 ft 395 kts 146°
2026-05-08 06:40 51.51487 -0.94949 29036 ft 390 kts 147°
2026-05-08 06:40 51.47099 -0.89937 29061 ft 388 kts 147°
2026-05-08 06:41 51.42408 -0.85881 29075 ft 386 kts 160°
2026-05-08 06:41 51.37387 -0.82738 29063 ft 388 kts 161°
2026-05-08 06:42 51.32362 -0.79598 29066 ft 387 kts 161°
2026-05-08 06:42 51.27363 -0.76428 29067 ft 386 kts 160°
2026-05-08 06:43 51.22386 -0.73261 29068 ft 384 kts 160°
2026-05-08 06:43 51.17424 -0.70109 29076 ft 383 kts 160°
2026-05-08 06:44 51.12470 -0.66969 29073 ft 383 kts 160°
2026-05-08 06:44 51.07544 -0.63713 29064 ft 385 kts 153°
2026-05-08 06:45 51.05365 -0.61214 29078 ft 389 kts 140°
2026-05-08 06:45 51.03559 -0.58004 29068 ft 393 kts 126°
2026-05-08 06:45 51.00685 -0.50596 29074 ft 394 kts 123°
2026-05-08 06:46 50.97846 -0.43136 29074 ft 395 kts 123°
2026-05-08 06:46 50.94973 -0.35701 29072 ft 395 kts 124°
2026-05-08 06:47 50.92076 -0.28281 29075 ft 395 kts 124°
2026-05-08 06:47 50.89174 -0.20884 29072 ft 395 kts 124°
2026-05-08 06:48 50.86267 -0.13493 29075 ft 395 kts 124°
2026-05-08 06:48 50.83362 -0.06124 29084 ft 394 kts 124°
2026-05-08 06:49 50.80455 0.01227 29079 ft 394 kts 124°
2026-05-08 06:49 50.77543 0.08567 29086 ft 394 kts 125°
2026-05-08 06:50 50.74034 0.15028 29074 ft 380 kts 143°
2026-05-08 06:50 50.72021 0.17581 28862 ft 374 kts 144°
2026-05-08 06:50 50.69998 0.20097 28643 ft 368 kts 144°
2026-05-08 06:51 50.67996 0.22592 28276 ft 366 kts 144°
2026-05-08 06:51 50.66015 0.25083 27939 ft 363 kts 144°
2026-05-08 06:51 50.64445 0.27067 27662 ft 361 kts 144°
2026-05-08 06:51 50.62502 0.29535 27311 ft 358 kts 144°
2026-05-08 06:52 50.60666 0.31867 26979 ft 356 kts 144°
2026-05-08 06:52 50.59163 0.33776 26705 ft 354 kts 144°
2026-05-08 06:52 50.57584 0.35780 26420 ft 352 kts 144°
2026-05-08 06:52 50.56166 0.37581 26155 ft 351 kts 144°
2026-05-08 06:53 50.54408 0.39819 25835 ft 349 kts 144°
2026-05-08 06:53 50.52593 0.42129 25498 ft 347 kts 144°
2026-05-08 06:53 50.50880 0.44306 25183 ft 345 kts 144°
2026-05-08 06:53 50.49129 0.46527 24863 ft 344 kts 144°
2026-05-08 06:54 50.47408 0.48707 24547 ft 342 kts 144°
2026-05-08 06:54 50.45700 0.50867 24238 ft 340 kts 144°
2026-05-08 06:54 50.43893 0.53148 23898 ft 339 kts 144°
2026-05-08 06:54 50.42064 0.55456 23561 ft 337 kts 144°
2026-05-08 06:55 50.40245 0.57749 23227 ft 335 kts 144°
2026-05-08 06:55 50.38431 0.60033 22890 ft 333 kts 144°
2026-05-08 06:55 50.36628 0.62302 22566 ft 332 kts 144°
2026-05-08 06:55 50.34835 0.64555 22239 ft 330 kts 144°
2026-05-08 06:56 50.33052 0.66798 21918 ft 328 kts 144°
2026-05-08 06:56 50.31280 0.69027 21598 ft 326 kts 144°
2026-05-08 06:56 50.29518 0.71242 21276 ft 324 kts 144°
2026-05-08 06:56 50.27765 0.73444 20955 ft 322 kts 144°
2026-05-08 06:57 50.26022 0.75632 20631 ft 321 kts 144°
2026-05-08 06:57 50.24287 0.77808 20319 ft 319 kts 144°
2026-05-08 06:57 50.22559 0.79973 19997 ft 317 kts 144°
2026-05-08 06:57 50.20841 0.82122 19682 ft 316 kts 144°
2026-05-08 06:58 50.19131 0.84262 19364 ft 314 kts 143°
2026-05-08 06:58 50.17544 0.86606 19049 ft 314 kts 135°
2026-05-08 06:58 50.16095 0.89152 18750 ft 313 kts 133°
2026-05-08 06:58 50.14707 0.91695 18448 ft 311 kts 133°
2026-05-08 06:59 50.13307 0.94260 18140 ft 310 kts 133°
2026-05-08 06:59 50.11910 0.96803 17826 ft 308 kts 133°
2026-05-08 06:59 50.10511 0.99324 17515 ft 307 kts 133°
2026-05-08 06:59 50.09567 1.01015 17306 ft 306 kts 133°
2026-05-08 07:00 50.07720 1.04304 16898 ft 304 kts 134°
2026-05-08 07:00 50.06332 1.06771 16586 ft 302 kts 134°
2026-05-08 07:00 50.04950 1.09220 16286 ft 301 kts 133°
2026-05-08 07:00 50.03572 1.11657 15981 ft 299 kts 133°
2026-05-08 07:01 50.02644 1.13297 15775 ft 299 kts 133°
2026-05-08 07:01 50.01274 1.15716 15472 ft 297 kts 133°
2026-05-08 07:01 49.99911 1.18122 15169 ft 296 kts 133°
2026-05-08 07:01 49.98569 1.20488 14868 ft 295 kts 133°
2026-05-08 07:02 49.97196 1.22906 14576 ft 294 kts 133°
2026-05-08 07:02 49.95843 1.25282 14282 ft 293 kts 133°
2026-05-08 07:02 49.94496 1.27648 13975 ft 292 kts 134°
2026-05-08 07:02 49.93002 1.29747 13669 ft 289 kts 148°
2026-05-08 07:03 49.91290 1.31350 13388 ft 286 kts 152°
2026-05-08 07:03 49.89557 1.32869 13089 ft 286 kts 152°
2026-05-08 07:03 49.87860 1.34392 12801 ft 285 kts 151°
2026-05-08 07:03 49.86131 1.35982 12499 ft 285 kts 151°
2026-05-08 07:04 49.84457 1.37535 12212 ft 284 kts 151°
2026-05-08 07:04 49.82752 1.39124 11689 ft 291 kts 150°
2026-05-08 07:04 49.80993 1.40774 11124 ft 300 kts 150°
2026-05-08 07:04 49.79186 1.42471 10488 ft 308 kts 150°
2026-05-08 07:05 49.77325 1.44215 9885 ft 314 kts 149°
2026-05-08 07:05 49.75530 1.45897 9897 ft 291 kts 149°
2026-05-08 07:05 49.73844 1.47476 9750 ft 277 kts 149°
2026-05-08 07:05 49.72210 1.49004 9377 ft 273 kts 149°
2026-05-08 07:06 49.70589 1.50520 9047 ft 272 kts 149°
2026-05-08 07:06 49.68951 1.52061 8616 ft 277 kts 148°
2026-05-08 07:06 49.67315 1.53602 8250 ft 274 kts 148°
2026-05-08 07:06 49.65703 1.55118 7888 ft 270 kts 148°
2026-05-08 07:07 49.64114 1.56611 7535 ft 265 kts 148°
2026-05-08 07:07 49.62598 1.58197 7182 ft 263 kts 135°
2026-05-08 07:07 49.61696 1.60578 7070 ft 257 kts 108°
2026-05-08 07:07 49.61355 1.63284 6971 ft 258 kts 96°
2026-05-08 07:08 49.61190 1.66063 6884 ft 261 kts 95°
2026-05-08 07:08 49.61030 1.68874 6794 ft 265 kts 95°
2026-05-08 07:08 49.60852 1.71697 6704 ft 264 kts 96°
2026-05-08 07:08 49.60664 1.74517 6617 ft 264 kts 96°
2026-05-08 07:09 49.60471 1.77328 6530 ft 264 kts 96°
2026-05-08 07:09 49.60277 1.80134 6449 ft 263 kts 96°
2026-05-08 07:09 49.60081 1.82939 6366 ft 263 kts 96°
2026-05-08 07:09 49.59885 1.85742 6289 ft 263 kts 96°
2026-05-08 07:10 49.59688 1.88533 6204 ft 262 kts 96°
2026-05-08 07:10 49.59492 1.91325 6121 ft 262 kts 96°
2026-05-08 07:10 49.59294 1.94115 6042 ft 262 kts 96°
2026-05-08 07:10 49.59095 1.96903 5962 ft 262 kts 96°
2026-05-08 07:11 49.58894 1.99695 5880 ft 262 kts 96°
2026-05-08 07:11 49.58695 2.02486 5795 ft 262 kts 96°
2026-05-08 07:11 49.58494 2.05238 5717 ft 262 kts 96°
2026-05-08 07:11 49.58293 2.08034 5606 ft 263 kts 96°
2026-05-08 07:12 49.58091 2.10837 5488 ft 262 kts 96°
2026-05-08 07:12 49.57890 2.13596 5386 ft 257 kts 96°
2026-05-08 07:12 49.57691 2.16314 5303 ft 255 kts 96°
2026-05-08 07:12 49.57492 2.19032 5232 ft 255 kts 96°
2026-05-08 07:13 49.57292 2.21752 5152 ft 256 kts 96°
2026-05-08 07:13 49.57090 2.24504 5072 ft 255 kts 96°
2026-05-08 07:13 49.56893 2.27188 4993 ft 255 kts 96°
2026-05-08 07:13 49.56692 2.29903 4916 ft 255 kts 96°
2026-05-08 07:14 49.56491 2.32624 4834 ft 255 kts 96°
2026-05-08 07:14 49.56289 2.35338 4758 ft 255 kts 96°
2026-05-08 07:14 49.56086 2.38055 4673 ft 255 kts 96°
2026-05-08 07:14 49.55882 2.40768 4595 ft 255 kts 97°
2026-05-08 07:15 49.55678 2.43476 4515 ft 255 kts 97°
2026-05-08 07:15 49.55262 2.46108 4410 ft 255 kts 118°
2026-05-08 07:15 49.54064 2.48059 4351 ft 253 kts 149°
2026-05-08 07:15 49.52407 2.48887 4286 ft 252 kts 173°
2026-05-08 07:16 49.50657 2.48954 4216 ft 252 kts 180°
2026-05-08 07:16 49.48904 2.48869 4135 ft 252 kts 181°
2026-05-08 07:16 49.47150 2.48777 4048 ft 253 kts 181°
2026-05-08 07:16 49.45393 2.48706 3970 ft 253 kts 180°
2026-05-08 07:17 49.43630 2.48652 3885 ft 254 kts 180°
2026-05-08 07:17 49.41862 2.48602 3802 ft 253 kts 180°
2026-05-08 07:17 49.40134 2.48553 3724 ft 245 kts 182°
2026-05-08 07:17 49.38537 2.47883 3626 ft 236 kts 211°
2026-05-08 07:18 49.37220 2.46518 3587 ft 223 kts 213°
2026-05-08 07:18 49.35945 2.45200 3525 ft 220 kts 213°
2026-05-08 07:18 49.34678 2.43913 3454 ft 219 kts 213°
2026-05-08 07:18 49.33586 2.42307 3357 ft 219 kts 242°
2026-05-08 07:19 49.33409 2.40108 3268 ft 205 kts 286°
2026-05-08 07:19 49.34019 2.38221 3221 ft 194 kts 298°
2026-05-08 07:19 49.34661 2.36415 3177 ft 193 kts 300°
2026-05-08 07:19 49.35363 2.34632 3063 ft 196 kts 302°
2026-05-08 07:20 49.36096 2.32883 2997 ft 193 kts 303°
2026-05-08 07:20 49.36823 2.31186 2986 ft 188 kts 304°
2026-05-08 07:20 49.37557 2.29487 2797 ft 195 kts 304°
2026-05-08 07:20 49.38303 2.27760 2547 ft 192 kts 304°
2026-05-08 07:21 49.39018 2.26107 2312 ft 179 kts 304°
2026-05-08 07:21 49.39674 2.24592 2087 ft 163 kts 304°
2026-05-08 07:21 49.40278 2.23197 1872 ft 154 kts 304°
2026-05-08 07:21 49.40866 2.21840 1673 ft 151 kts 303°
2026-05-08 07:22 49.41442 2.20502 1474 ft 150 kts 303°
2026-05-08 07:22 49.42025 2.19166 1258 ft 151 kts 304°
2026-05-08 07:22 49.42598 2.17842 1076 ft 147 kts 303°
2026-05-08 07:22 49.43168 2.16524 894 ft 148 kts 303°
2026-05-08 07:23 49.43745 2.15195 687 ft 150 kts 304°
2026-05-08 07:23 49.44324 2.13865 474 ft 149 kts 303°
2026-05-08 07:23 49.44879 2.12572 322 ft 140 kts 304°
2026-05-08 07:23 49.45327 2.11549 336 ft 83 kts 303°
2026-05-08 07:24 49.45529 2.11080 345 ft 33 kts 303°
2026-05-08 07:24 49.45615 2.10892 349 ft 6 kts 321°
2026-05-08 07:24 49.45659 2.10887 349 ft 8 kts 20°
2026-05-08 07:24 49.45720 2.10933 349 ft 11 kts 28°
2026-05-08 07:25 49.45765 2.10971 354 ft 5 kts 29°
2026-05-08 07:25 49.45789 2.11009 348 ft 5 kts 70°
2026-05-08 07:25 49.45761 2.11116 347 ft 5 kts 84°
2026-05-08 07:26 49.45783 2.11151 346 ft 3 kts 35°
2026-05-08 07:26 49.45799 2.11167 346 ft 3 kts 33°
2026-05-08 07:26 49.45803 2.11171 350 ft 0 kts 33°